Flag for Germany Weather past 2 weeks in Stuhr, Lower Saxony, Germany

Now
72 °F

Sunny.


Feels Like: 72 °F
Forecast: 60 / 95 °F
Wind: 2 mph from North

Location: Bremen Airport

Current Time: Jul 3, 2015 at 10:08:20 AM

Latest Report: Jul 3, 2015 at 9:20 AM


Visibility: 10 mi

Pressure: 30.24 "Hg

Humidity: 78%

Dew point: 64 °F

Location of StuhrLocation

Historic Weather in Stuhr — Graph

°F

Stuhr temperature yesterday

Maximum temperature yesterday: 91 °F (at 2:50 PM)
Minimum temperature yesterday: 66 °F (at 4:50 AM)
Average temperature yesterday: 80 °F

Past Weeks' High & Low Weather Summary

 TemperatureHumidityPressure
High91 °F (Jul 2, 2:50 PM)100% (Jun 21, 3:20 AM)30.24 "Hg (Jun 21, 3:20 AM)
Low46 °F (Jun 20, 11:20 PM)30% (Jul 2, 3:20 PM)29.65 "Hg (Jun 22, 7:50 PM)
Average62 °F73%30.04 "Hg
* Reported Jun 18 8:20 AM — Jul 3 8:50 AM, Stuhr, Weather by CustomWeather, © 2015

Note: Actual official high and low records may vary slightly from our data, if they occured in-between our weather recording intervals... More about our weather records

Advertising

Stuhr weather history for previous 24 hours

 ConditionsComfort  
Time TempWeatherWind HumidityBarometerVisibility
8:50 AM
Fri, Jul 3
70 °FSunny.1 mph83%30.24 "Hg10 mi
8:20 AM70 °FPassing clouds.3 mph83%30.21 "HgN/A
7:50 AM68 °FBroken clouds.7 mph88%30.21 "HgN/A
7:20 AM68 °FSprinkles. Broken clouds.5 mph83%30.21 "HgN/A
6:50 AM68 °FSprinkles. Partly sunny.13 mph83%30.18 "HgN/A
6:20 AM70 °FMild.16 mph78%30.24 "HgN/A
5:50 AM72 °FSprinkles. Partly cloudy.17 mph73%30.18 "HgN/A
5:20 AM72 °FThunderstorms. Partly cloudy.20 mph73%30.18 "HgN/A
4:50 AM73 °FThunderstorms. Partly cloudy.12 mph65%30.21 "HgN/A
4:20 AM73 °FPassing clouds.12 mph65%30.24 "HgN/A
3:50 AM72 °FClear.14 mph69%30.21 "Hg10 mi
3:20 AM72 °FClear.15 mph73%30.21 "Hg10 mi
2:50 AM73 °FPassing clouds.15 mph65%30.18 "HgN/A
2:20 AM73 °FClear.13 mph53%30.18 "Hg10 mi
1:50 AM75 °FClear.7 mph50%30.15 "Hg10 mi
1:20 AM77 °FClear.8 mph47%30.12 "Hg10 mi
12:50 AM77 °FClear.9 mph47%30.12 "Hg10 mi
12:20 AM79 °FClear.12 mph45%30.12 "Hg10 mi
11:50 PM
Thu, Jul 2
79 °FClear.9 mph48%30.12 "Hg10 mi
11:20 PM81 °FClear.10 mph45%30.12 "Hg10 mi
10:50 PM82 °FSunny.10 mph40%30.12 "Hg10 mi
10:20 PM84 °FSunny.10 mph37%30.12 "Hg10 mi
9:50 PM84 °FSunny.10 mph37%30.12 "Hg10 mi
9:20 PM86 °FSunny.8 mph38%30.12 "Hg10 mi
8:50 PM88 °FSunny.10 mph35%30.09 "Hg10 mi
8:20 PM88 °FSunny.10 mph38%30.09 "Hg10 mi
7:50 PM90 °FSunny.9 mph33%30.09 "Hg10 mi
7:20 PM90 °FPassing clouds.13 mph33%30.09 "HgN/A
6:50 PM91 °FPassing clouds.12 mph32%30.09 "HgN/A
6:20 PM91 °FPassing clouds.15 mph30%30.09 "HgN/A
5:50 PM91 °FPassing clouds.14 mph30%30.09 "HgN/A
5:20 PM91 °FPassing clouds.13 mph30%30.09 "HgN/A
4:50 PM91 °FSunny.15 mph32%30.09 "Hg10 mi
4:20 PM91 °FSunny.16 mph32%30.09 "Hg10 mi
3:50 PM91 °FPassing clouds.16 mph32%30.09 "HgN/A
3:20 PM91 °FPassing clouds.15 mph30%30.09 "HgN/A
2:50 PM91 °FPassing clouds.15 mph32%30.09 "HgN/A
2:20 PM90 °FPassing clouds.16 mph33%30.12 "HgN/A
1:50 PM90 °FPassing clouds.15 mph33%30.12 "HgN/A
1:20 PM90 °FPassing clouds.15 mph33%30.12 "HgN/A
12:50 PM86 °FSunny.16 mph35%30.12 "Hg10 mi
12:20 PM86 °FPassing clouds.16 mph35%30.12 "HgN/A
11:50 AM86 °FPassing clouds.16 mph38%30.12 "HgN/A
11:20 AM84 °FSunny.14 mph37%30.12 "Hg10 mi
10:50 AM82 °FPassing clouds.15 mph42%30.12 "HgN/A
10:20 AM81 °FSunny.14 mph39%30.12 "Hg10 mi
Weather by CustomWeather, © 2015

See weather overviewHow to use our weather pages